Weather History for KSJN - August, 2013

Change the Weather History Date:

Monday, August 12, 2013

  Actual Average (KSOW) Record (KSOW)
Temperature  
Mean Temperature 64 °F -  
Max Temperature 79 °F 80 °F 91 °F (1993)
Min Temperature 48 °F 61 °F 48 °F (1968)
Degree Days  
Heating Degree Days 2    
Growing Degree Days 14 (Base 50)    
Moisture  
Dew Point 52 °F    
Average Humidity 57    
Maximum Humidity 90    
Minimum Humidity 14    
Precipitation  
Precipitation 0.08 in - - ()
Sea Level Pressure  
Sea Level Pressure 29.99 in    
Wind  
Wind Speed 6 mph (SSE)    
Max Wind Speed 20 mph    
Max Gust Speed 23 mph    
Visibility 10 miles    
Events Rain , Thunderstorm    
Averages and records for this station are not official NWS values.
T = Trace of Precipitation, MM = Missing Value Source: NWS Daily Summary

Daily Weather History Graph

Daily Weather History Graph

Search for Another Location

Airport or City:

Trip Planner

Search our weather history database for the weather conditions in past years. The results will help you decide how hot, cold, wet, or windy it might be!

Date:

Astronomy

Aug. 12, 2013 Rise Set
Actual Time 5:36 AM MST 7:08 PM MST
Civil Twilight 5:09 AM MST 7:34 PM MST
Nautical Twilight 4:37 AM MST 8:06 PM MST
Astronomical Twilight 4:03 AM MST 8:40 PM MST
Moon 11:12 AM MST (8/12) 10:21 PM MST (8/12)
Length of Visible Light 14h 25m
Length of Day
13h 31m
Waxing Crescent, 32% of the Moon is Illuminated
Aug 12
Waxing Crescent
Aug 14
First Quarter
Aug 20
Full
Aug 28
Last Quarter
Sep 5
New

Hourly Weather History & Observations

Time (MST) Temp. Heat Index Dew Point Humidity Pressure Visibility Wind Dir Wind Speed Gust Speed Precip Events Conditions
12:54 AM 61.0 °F - 57.0 °F 87% 29.99 in 10.0 mi South 10.4 mph - 0.04 in Rain Light Rain
1:54 AM 61.0 °F - 57.0 °F 87% 29.98 in 10.0 mi SE 6.9 mph - 0.03 in Rain Light Rain
2:54 AM 60.1 °F - 57.0 °F 90% 29.99 in 10.0 mi ESE 8.1 mph - 0.00 in   Scattered Clouds
3:54 AM 60.1 °F - 55.9 °F 86% 29.94 in 10.0 mi SE 9.2 mph - N/A   Clear
4:54 AM 57.9 °F - 55.0 °F 90% 29.94 in 10.0 mi Calm Calm - N/A   Clear
5:54 AM 57.9 °F - 54.0 °F 87% 29.98 in 10.0 mi Calm Calm - N/A   Clear
6:54 AM 62.1 °F - 55.0 °F 78% 29.99 in 10.0 mi Calm Calm - N/A   Clear
7:54 AM 64.9 °F - 55.0 °F 70% 30.01 in 10.0 mi Calm Calm - N/A   Clear
8:54 AM 69.1 °F - 55.9 °F 63% 30.00 in 10.0 mi ENE 3.5 mph - N/A   Clear
9:54 AM 73.9 °F - 55.9 °F 53% 30.00 in 10.0 mi Calm Calm - N/A   Clear
10:54 AM 77.0 °F - 57.0 °F 50% 30.00 in 10.0 mi NE 5.8 mph - N/A   Clear
11:54 AM 80.1 °F 80.0 °F 54.0 °F 40% 29.97 in 10.0 mi Variable 5.8 mph - N/A   Clear
12:54 PM 82.0 °F - 48.0 °F 30% 29.94 in 10.0 mi NNW 6.9 mph - N/A   Clear
1:54 PM 84.0 °F - 46.9 °F 27% 29.91 in 10.0 mi Variable 3.5 mph - N/A   Scattered Clouds
2:37 PM 84.2 °F - 44.6 °F 25% 30.17 in 10.0 mi Calm Calm - N/A Thunderstorm Thunderstorm
2:52 PM 84.2 °F - 46.4 °F 27% 30.17 in 10.0 mi South 19.6 mph 23.0 mph N/A   Mostly Cloudy
2:54 PM 82.9 °F - 51.1 °F 33% 29.90 in 10.0 mi South 19.6 mph 23.0 mph N/A   Mostly Cloudy
3:08 PM 82.4 °F - 51.8 °F 35% 30.17 in 10.0 mi SE 11.5 mph - N/A   Scattered Clouds
3:54 PM 78.1 °F - 54.0 °F 43% 29.93 in 10.0 mi SSE 16.1 mph - N/A   Scattered Clouds
4:54 PM 81.0 °F - 50.0 °F 34% 29.91 in 10.0 mi SE 5.8 mph - N/A   Clear
5:54 PM 75.9 °F - 55.9 °F 50% 29.93 in 10.0 mi South 5.8 mph - 0.01 in   Mostly Cloudy
6:54 PM 73.0 °F - 55.0 °F 53% 29.93 in 10.0 mi ESE 3.5 mph - 0.02 in   Scattered Clouds
7:54 PM 69.1 °F - 57.0 °F 65% 29.94 in 10.0 mi SSE 8.1 mph - N/A   Clear
8:54 PM 68.0 °F - 54.0 °F 61% 29.94 in 10.0 mi South 8.1 mph - N/A   Clear
10:54 PM 64.9 °F - 53.1 °F 65% 29.95 in 10.0 mi South 9.2 mph - N/A   Clear
11:54 PM 64.0 °F - 53.1 °F 67% 29.95 in 10.0 mi Calm Calm - N/A   Clear